When you browse on this site, cookies collect data to enhance your experience and personalize the content and advertising you see.
Visit our Privacy Policy to learn more. By continuing to use the site, you agree to this use of cookies and data.
  • In Romania
  • List of Countries
  • For 7 days
  • Water Temperature
  • Weather Map
  • Weather Widgets
  • user-avatar
    Login

    Hourly Weather Alesd

    Today, 27 May, Wednesday

    Time Temperature Precipitation Wind Pressure Humidity
    00:00 +8°C° 0 mm 1 mps 736 mmHg 93%
    01:00 +8°C° 0 mm 1 mps 736 mmHg 94%
    02:00 +8°C° 0 mm 1 mps 736 mmHg 94%
    03:00 +8°C° 0 mm 1 mps 736 mmHg 95%
    04:00 +8°C° 0 mm 1 mps 736 mmHg 95%
    05:00 +8°C° 0 mm 2 mps 736 mmHg 91%
    06:00 +10°C° 0 mm 2 mps 736 mmHg 88%
    07:00 +11°C° 0 mm 3 mps 737 mmHg 84%
    08:00 +12°C° 0.2 mm 3 mps 737 mmHg 80%
    09:00 +14°C° 0.2 mm 4 mps 737 mmHg 76%
    10:00 +15°C° 0.2 mm 5 mps 737 mmHg 73%
    11:00 +15°C° 0.6 mm 4 mps 737 mmHg 73%
    12:00 +15°C° 0.6 mm 4 mps 736 mmHg 74%
    13:00 +17°C° 0.6 mm 4 mps 736 mmHg 74%
    14:00 +15°C° 0.5 mm 4 mps 736 mmHg 75%
    15:00 +15°C° 0.5 mm 4 mps 736 mmHg 76%
    16:00 +15°C° 0.5 mm 4 mps 735 mmHg 77%
    17:00 +14°C° 0.4 mm 3 mps 735 mmHg 81%
    18:00 +13°C° 0.4 mm 3 mps 735 mmHg 85%
    19:00 +13°C° 0.4 mm 2 mps 735 mmHg 89%
    20:00 +12°C° 0 mm 2 mps 735 mmHg 90%
    21:00 +10°C° 0 mm 2 mps 735 mmHg 91%
    22:00 +10°C° 0 mm 1 mps 735 mmHg 92%
    23:00 +10°C° 0 mm 1 mps 735 mmHg 93%

    Tomorrow, 28 May, Thursday

    Time Temperature Precipitation Wind Pressure Humidity
    00:00 +10°C° 0 mm 1 mps 735 mmHg 93%
    01:00 +9°C° 0 mm 1 mps 735 mmHg 93%
    02:00 +9°C° 0 mm 1 mps 734 mmHg 93%
    03:00 +9°C° 0 mm 1 mps 734 mmHg 93%
    04:00 +9°C° 0 mm 1 mps 734 mmHg 93%
    05:00 +10°C° 0 mm 1 mps 734 mmHg 90%
    06:00 +12°C° 0 mm 2 mps 734 mmHg 86%
    07:00 +13°C° 0 mm 2 mps 734 mmHg 83%
    08:00 +13°C° 0.4 mm 3 mps 733 mmHg 78%
    09:00 +14°C° 0.4 mm 3 mps 733 mmHg 74%
    10:00 +17°C° 0.4 mm 3 mps 733 mmHg 69%
    11:00 +17°C° 0.6 mm 4 mps 733 mmHg 69%
    12:00 +17°C° 0.6 mm 4 mps 732 mmHg 70%
    13:00 +16°C° 0.6 mm 5 mps 731 mmHg 70%
    14:00 +16°C° 0.6 mm 5 mps 731 mmHg 72%
    15:00 +17°C° 0.6 mm 4 mps 731 mmHg 74%
    16:00 +17°C° 0.6 mm 4 mps 730 mmHg 76%
    17:00 +14°C° 0.5 mm 3 mps 730 mmHg 80%
    18:00 +13°C° 0.5 mm 3 mps 730 mmHg 84%
    19:00 +13°C° 0.5 mm 2 mps 730 mmHg 87%
    20:00 +12°C° 0 mm 2 mps 730 mmHg 89%
    21:00 +10°C° 0 mm 2 mps 730 mmHg 90%
    22:00 +10°C° 0 mm 1 mps 731 mmHg 91%
    23:00 +10°C° 0 mm 1 mps 730 mmHg 91%

    Day after tomorrow, 29 May, Friday

    Time Temperature Precipitation Wind Pressure Humidity
    00:00 +9°C° 0 mm 1 mps 730 mmHg 92%
    01:00 +9°C° 0 mm 1 mps 730 mmHg 92%
    02:00 +9°C° 0 mm 1 mps 730 mmHg 93%
    03:00 +9°C° 0 mm 1 mps 730 mmHg 93%
    04:00 +9°C° 0 mm 1 mps 730 mmHg 94%
    05:00 +10°C° 0 mm 1 mps 731 mmHg 92%
    06:00 +12°C° 0 mm 2 mps 731 mmHg 90%
    07:00 +13°C° 0 mm 2 mps 731 mmHg 87%
    08:00 +14°C° 0.2 mm 2 mps 731 mmHg 84%
    09:00 +14°C° 0.2 mm 3 mps 731 mmHg 81%
    10:00 +16°C° 0.2 mm 3 mps 731 mmHg 77%
    11:00 +15°C° 0.9 mm 4 mps 731 mmHg 77%
    12:00 +17°C° 0.9 mm 4 mps 730 mmHg 77%
    13:00 +16°C° 0.9 mm 5 mps 730 mmHg 76%
    14:00 +17°C° 0.5 mm 4 mps 730 mmHg 76%
    15:00 +17°C° 0.5 mm 4 mps 730 mmHg 75%
    16:00 +17°C° 0.5 mm 4 mps 729 mmHg 75%
    17:00 +14°C° 0 mm 4 mps 729 mmHg 79%
    18:00 +13°C° 0 mm 3 mps 729 mmHg 83%
    19:00 +13°C° 0 mm 2 mps 729 mmHg 87%
    20:00 +12°C° 0 mm 2 mps 729 mmHg 88%
    21:00 +10°C° 0 mm 2 mps 730 mmHg 89%
    22:00 +10°C° 0 mm 1 mps 730 mmHg 91%
    23:00 +9°C° 0 mm 1 mps 730 mmHg 91%

    30 May, Saturday

    Time Temperature Precipitation Wind Pressure Humidity
    00:00 +9°C° 0 mm 1 mps 730 mmHg 91%
    01:00 +8°C° 0 mm 1 mps 730 mmHg 91%
    02:00 +8°C° 0 mm 1 mps 729 mmHg 91%
    03:00 +8°C° 0 mm 1 mps 729 mmHg 91%
    04:00 +7°C° 0 mm 1 mps 729 mmHg 92%
    05:00 +9°C° 0 mm 1 mps 730 mmHg 87%
    06:00 +10°C° 0 mm 2 mps 730 mmHg 82%
    07:00 +13°C° 0 mm 2 mps 730 mmHg 77%
    08:00 +13°C° 0 mm 3 mps 730 mmHg 71%
    09:00 +14°C° 0 mm 3 mps 730 mmHg 66%
    10:00 +16°C° 0 mm 3 mps 730 mmHg 60%
    11:00 +17°C° 0 mm 3 mps 730 mmHg 59%
    12:00 +17°C° 0 mm 4 mps 730 mmHg 58%
    13:00 +18°C° 0 mm 4 mps 730 mmHg 57%
    14:00 +18°C° 0.1 mm 4 mps 729 mmHg 60%
    15:00 +17°C° 0.1 mm 3 mps 729 mmHg 62%
    16:00 +17°C° 0.1 mm 3 mps 729 mmHg 64%
    17:00 +14°C° 0 mm 3 mps 729 mmHg 71%
    18:00 +14°C° 0 mm 2 mps 729 mmHg 77%
    19:00 +12°C° 0 mm 1 mps 729 mmHg 84%
    20:00 +11°C° 0 mm 1 mps 729 mmHg 85%
    21:00 +10°C° 0 mm 1 mps 729 mmHg 87%
    22:00 +9°C° 0 mm 1 mps 729 mmHg 89%
    23:00 +9°C° 0 mm 1 mps 729 mmHg 89%

    31 May, Sunday

    Time Temperature Precipitation Wind Pressure Humidity
    00:00 +9°C° 0 mm 1 mps 729 mmHg 89%
    01:00 +9°C° 0 mm 1 mps 729 mmHg 89%
    02:00 +8°C° 0 mm 1 mps 729 mmHg 89%
    03:00 +8°C° 0 mm 1 mps 729 mmHg 89%
    04:00 +7°C° 0 mm 2 mps 729 mmHg 90%
    05:00 +9°C° 0 mm 2 mps 729 mmHg 85%
    06:00 +11°C° 0 mm 3 mps 729 mmHg 81%
    07:00 +13°C° 0 mm 3 mps 729 mmHg 76%
    08:00 +14°C° 0 mm 4 mps 729 mmHg 71%
    09:00 +15°C° 0 mm 5 mps 729 mmHg 67%
    10:00 +16°C° 0 mm 5 mps 729 mmHg 62%
    11:00 +16°C° 0 mm 5 mps 729 mmHg 61%
    12:00 +16°C° 0 mm 5 mps 729 mmHg 60%
    13:00 +17°C° 0 mm 5 mps 728 mmHg 58%
    14:00 +18°C° 0.1 mm 4 mps 728 mmHg 61%
    15:00 +17°C° 0.1 mm 4 mps 728 mmHg 64%
    16:00 +17°C° 0.1 mm 3 mps 728 mmHg 67%
    17:00 +16°C° 0 mm 3 mps 728 mmHg 73%
    18:00 +14°C° 0 mm 2 mps 728 mmHg 78%
    19:00 +13°C° 0 mm 2 mps 728 mmHg 84%
    20:00 +12°C° 0 mm 2 mps 728 mmHg 86%
    21:00 +10°C° 0 mm 2 mps 729 mmHg 88%
    22:00 +9°C° 0 mm 2 mps 729 mmHg 91%
    23:00 +9°C° 0 mm 2 mps 729 mmHg 91%

    1 June, Monday

    Time Temperature Precipitation Wind Pressure Humidity
    00:00 +9°C° 0 mm 2 mps 729 mmHg 91%
    01:00 +8°C° 0 mm 2 mps 729 mmHg 91%
    02:00 +9°C° 0 mm 1 mps 729 mmHg 91%
    03:00 +9°C° 0 mm 1 mps 729 mmHg 91%
    04:00 +9°C° 0 mm 1 mps 729 mmHg 91%
    05:00 +11°C° 0 mm 1 mps 730 mmHg 87%
    06:00 +12°C° 0 mm 1 mps 730 mmHg 82%
    07:00 +14°C° 0 mm 1 mps 730 mmHg 78%
    08:00 +15°C° 0.1 mm 1 mps 730 mmHg 74%
    09:00 +18°C° 0.1 mm 1 mps 730 mmHg 71%
    10:00 +18°C° 0.1 mm 2 mps 730 mmHg 68%
    11:00 +18°C° 0.2 mm 2 mps 730 mmHg 67%
    12:00 +19°C° 0.2 mm 2 mps 730 mmHg 67%
    13:00 +19°C° 0.2 mm 2 mps 730 mmHg 67%
    14:00 +19°C° 0.3 mm 2 mps 730 mmHg 69%
    15:00 +19°C° 0.3 mm 2 mps 730 mmHg 71%
    16:00 +19°C° 0.3 mm 2 mps 729 mmHg 72%
    17:00 +17°C° 0 mm 2 mps 729 mmHg 76%
    18:00 +16°C° 0 mm 1 mps 729 mmHg 80%
    19:00 +15°C° 0 mm 1 mps 729 mmHg 83%
    20:00 +14°C° 0 mm 1 mps 730 mmHg 85%
    21:00 +13°C° 0 mm 1 mps 730 mmHg 86%
    22:00 +13°C° 0 mm 1 mps 730 mmHg 87%
    23:00 +12°C° 0 mm 1 mps 730 mmHg 87%
    Show more